CLUSTER II-FM8 (TANGO)

Last updated on Thu Nov 14 2024 00:03:26 GMT+0000 (Coordinated Universal Time)

1 26464U 00045B 24316.33596494 .00000530 00000+0 00000+0 0 9996 2 26464 141.0419 2.4124 7869840 217.5188 0.7328 0.44221711 65374
UTC large
Height (km)
Speed (km/s)
/
Latitude / Longitude
Inclination (degrees)
Orbital Period (minutes)
Azimuth
Elevation
Range (km)
Doppler Factor

Next 0 passes for location: London (51.5072 / 0.1276)

Sorry there are no passes over London.